• In Czech Republic
  • List of Countries
  • For 7 days
  • Water Temperature
  • Satellite Maps
  • Weather Map
  • Weather Widgets
  • user-avatar
    Login

    Hourly Weather Tibissa

    Today, 24 September, Sunday

    Time Temperature Precipitation Wind Pressure Humidity
    00:00 +22°C° 0 mm 3 mps 688 mmHg 51%
    01:00 +21°C° 0 mm 3 mps 688 mmHg 52%
    02:00 +21°C° 0 mm 3 mps 688 mmHg 53%
    03:00 +21°C° 0 mm 3 mps 688 mmHg 54%
    04:00 +20°C° 0 mm 3 mps 687 mmHg 55%
    05:00 +20°C° 0 mm 3 mps 687 mmHg 54%
    06:00 +20°C° 0 mm 3 mps 688 mmHg 54%
    07:00 +20°C° 0 mm 3 mps 688 mmHg 53%
    08:00 +22°C° 0 mm 3 mps 688 mmHg 47%
    09:00 +24°C° 0 mm 3 mps 689 mmHg 41%
    10:00 +26°C° 0 mm 4 mps 689 mmHg 35%
    11:00 +27°C° 0 mm 4 mps 689 mmHg 33%
    12:00 +28°C° 0 mm 4 mps 689 mmHg 31%
    13:00 +28°C° 0 mm 4 mps 689 mmHg 30%
    14:00 +28°C° 0 mm 5 mps 689 mmHg 31%
    15:00 +28°C° 0 mm 5 mps 689 mmHg 32%
    16:00 +28°C° 0 mm 5 mps 689 mmHg 33%
    17:00 +27°C° 0 mm 5 mps 688 mmHg 38%
    18:00 +26°C° 0 mm 5 mps 688 mmHg 43%
    19:00 +25°C° 0 mm 4 mps 688 mmHg 47%
    20:00 +23°C° 0 mm 4 mps 689 mmHg 51%
    21:00 +22°C° 0 mm 3 mps 689 mmHg 55%
    22:00 +21°C° 0 mm 3 mps 689 mmHg 59%
    23:00 +21°C° 0 mm 2 mps 689 mmHg 61%

    Tomorrow, 25 September, Monday

    Time Temperature Precipitation Wind Pressure Humidity
    00:00 +20°C° 0 mm 2 mps 689 mmHg 63%
    01:00 +20°C° 0 mm 2 mps 689 mmHg 65%
    02:00 +20°C° 0 mm 1 mps 688 mmHg 67%
    03:00 +20°C° 0 mm 1 mps 688 mmHg 69%
    04:00 +19°C° 0 mm 1 mps 688 mmHg 71%
    05:00 +19°C° 0 mm 1 mps 688 mmHg 70%
    06:00 +19°C° 0 mm 1 mps 688 mmHg 70%
    07:00 +19°C° 0 mm 1 mps 688 mmHg 70%
    08:00 +20°C° 0 mm 1 mps 688 mmHg 63%
    09:00 +22°C° 0 mm 1 mps 689 mmHg 56%
    10:00 +23°C° 0 mm 1 mps 689 mmHg 49%
    11:00 +24°C° 0 mm 1 mps 689 mmHg 44%
    12:00 +25°C° 0 mm 1 mps 689 mmHg 39%
    13:00 +26°C° 0 mm 2 mps 689 mmHg 35%
    14:00 +26°C° 0 mm 2 mps 689 mmHg 33%
    15:00 +27°C° 0 mm 2 mps 689 mmHg 31%
    16:00 +27°C° 0 mm 2 mps 688 mmHg 29%
    17:00 +27°C° 0 mm 3 mps 688 mmHg 29%
    18:00 +26°C° 0 mm 3 mps 688 mmHg 29%
    19:00 +26°C° 0 mm 3 mps 688 mmHg 29%
    20:00 +25°C° 0 mm 3 mps 689 mmHg 31%
    21:00 +24°C° 0 mm 3 mps 689 mmHg 33%
    22:00 +24°C° 0 mm 3 mps 689 mmHg 35%
    23:00 +23°C° 0 mm 2 mps 689 mmHg 40%

    Day after tomorrow, 26 September, Tuesday

    Time Temperature Precipitation Wind Pressure Humidity
    00:00 +21°C° 0 mm 2 mps 689 mmHg 44%
    01:00 +20°C° 0 mm 2 mps 688 mmHg 49%
    02:00 +21°C° 0 mm 1 mps 688 mmHg 53%
    03:00 +20°C° 0 mm 1 mps 688 mmHg 58%
    04:00 +20°C° 0 mm 1 mps 687 mmHg 62%
    05:00 +19°C° 0 mm 1 mps 687 mmHg 63%
    06:00 +17°C° 0 mm 0 mps 688 mmHg 64%
    07:00 +17°C° 0 mm 0 mps 688 mmHg 65%
    08:00 +19°C° 0 mm 0 mps 688 mmHg 57%
    09:00 +22°C° 0 mm 1 mps 689 mmHg 49%
    10:00 +24°C° 0 mm 1 mps 689 mmHg 41%
    11:00 +25°C° 0 mm 1 mps 689 mmHg 36%
    12:00 +26°C° 0 mm 1 mps 689 mmHg 31%
    13:00 +27°C° 0 mm 2 mps 689 mmHg 26%
    14:00 +27°C° 0 mm 2 mps 689 mmHg 25%
    15:00 +27°C° 0 mm 2 mps 688 mmHg 23%
    16:00 +28°C° 0 mm 3 mps 688 mmHg 22%
    17:00 +27°C° 0 mm 3 mps 688 mmHg 24%
    18:00 +27°C° 0 mm 3 mps 688 mmHg 25%
    19:00 +26°C° 0 mm 3 mps 688 mmHg 27%
    20:00 +25°C° 0 mm 3 mps 689 mmHg 30%
    21:00 +24°C° 0 mm 3 mps 689 mmHg 33%
    22:00 +24°C° 0 mm 2 mps 689 mmHg 36%
    23:00 +23°C° 0 mm 2 mps 689 mmHg 39%

    27 September, Wednesday

    Time Temperature Precipitation Wind Pressure Humidity
    00:00 +22°C° 0 mm 1 mps 688 mmHg 43%
    01:00 +22°C° 0 mm 1 mps 688 mmHg 46%
    02:00 +21°C° 0 mm 1 mps 688 mmHg 48%
    03:00 +21°C° 0 mm 1 mps 688 mmHg 50%
    04:00 +21°C° 0 mm 1 mps 688 mmHg 52%
    05:00 +21°C° 0 mm 1 mps 688 mmHg 52%
    06:00 +21°C° 0 mm 1 mps 688 mmHg 53%
    07:00 +21°C° 0 mm 1 mps 688 mmHg 54%
    08:00 +21°C° 0 mm 2 mps 689 mmHg 48%
    09:00 +24°C° 0 mm 2 mps 689 mmHg 41%
    10:00 +25°C° 0 mm 3 mps 690 mmHg 35%
    11:00 +26°C° 0 mm 3 mps 690 mmHg 32%
    12:00 +27°C° 0 mm 4 mps 690 mmHg 28%
    13:00 +28°C° 0 mm 4 mps 690 mmHg 25%
    14:00 +28°C° 0 mm 5 mps 689 mmHg 25%
    15:00 +28°C° 0 mm 5 mps 689 mmHg 25%
    16:00 +28°C° 0 mm 5 mps 689 mmHg 25%
    17:00 +27°C° 0 mm 5 mps 689 mmHg 29%
    18:00 +26°C° 0 mm 5 mps 689 mmHg 33%
    19:00 +25°C° 0 mm 5 mps 689 mmHg 38%
    20:00 +23°C° 0 mm 5 mps 689 mmHg 43%
    21:00 +22°C° 0 mm 4 mps 689 mmHg 48%
    22:00 +21°C° 0 mm 4 mps 690 mmHg 54%
    23:00 +20°C° 0 mm 4 mps 689 mmHg 56%

    28 September, Thursday

    Time Temperature Precipitation Wind Pressure Humidity
    00:00 +20°C° 0 mm 3 mps 689 mmHg 58%
    01:00 +19°C° 0 mm 3 mps 689 mmHg 60%
    02:00 +19°C° 0 mm 3 mps 689 mmHg 63%
    03:00 +18°C° 0 mm 3 mps 689 mmHg 66%
    04:00 +17°C° 0 mm 3 mps 689 mmHg 69%
    05:00 +17°C° 0 mm 3 mps 689 mmHg 71%
    06:00 +17°C° 0 mm 3 mps 689 mmHg 73%
    07:00 +16°C° 0 mm 2 mps 689 mmHg 75%
    08:00 +17°C° 0 mm 3 mps 690 mmHg 67%
    09:00 +19°C° 0 mm 4 mps 690 mmHg 59%
    10:00 +20°C° 0 mm 4 mps 691 mmHg 50%
    11:00 +21°C° 0 mm 4 mps 691 mmHg 46%
    12:00 +21°C° 0 mm 4 mps 690 mmHg 41%
    13:00 +22°C° 0 mm 5 mps 690 mmHg 36%
    14:00 +23°C° 0 mm 5 mps 690 mmHg 36%
    15:00 +23°C° 0 mm 5 mps 690 mmHg 35%
    16:00 +23°C° 0 mm 5 mps 690 mmHg 35%
    17:00 +22°C° 0 mm 5 mps 690 mmHg 38%
    18:00 +21°C° 0 mm 5 mps 690 mmHg 42%
    19:00 +20°C° 0 mm 5 mps 690 mmHg 46%
    20:00 +20°C° 0 mm 5 mps 690 mmHg 50%
    21:00 +19°C° 0 mm 4 mps 690 mmHg 55%
    22:00 +18°C° 0 mm 4 mps 690 mmHg 59%
    23:00 +17°C° 0 mm 3 mps 690 mmHg 61%

    29 September, Friday

    Time Temperature Precipitation Wind Pressure Humidity
    00:00 +17°C° 0 mm 3 mps 690 mmHg 64%
    01:00 +16°C° 0 mm 3 mps 690 mmHg 66%
    02:00 +16°C° 0 mm 3 mps 689 mmHg 68%
    03:00 +15°C° 0 mm 2 mps 689 mmHg 70%
    04:00 +15°C° 0 mm 2 mps 689 mmHg 72%
    05:00 +15°C° 0 mm 2 mps 689 mmHg 73%
    06:00 +15°C° 0 mm 2 mps 689 mmHg 74%
    07:00 +14°C° 0 mm 2 mps 689 mmHg 75%
    08:00 +16°C° 0 mm 3 mps 689 mmHg 66%
    09:00 +17°C° 0 mm 3 mps 690 mmHg 58%
    10:00 +18°C° 0 mm 4 mps 690 mmHg 50%
    11:00 +19°C° 0 mm 4 mps 690 mmHg 45%
    12:00 +20°C° 0 mm 4 mps 690 mmHg 41%
    13:00 +21°C° 0 mm 5 mps 690 mmHg 36%
    14:00 +22°C° 0 mm 5 mps 689 mmHg 35%
    15:00 +22°C° 0 mm 5 mps 689 mmHg 34%
    16:00 +22°C° 0 mm 5 mps 689 mmHg 33%
    17:00 +22°C° 0 mm 5 mps 689 mmHg 38%
    18:00 +21°C° 0 mm 5 mps 689 mmHg 42%
    19:00 +20°C° 0 mm 5 mps 689 mmHg 46%
    20:00 +19°C° 0 mm 4 mps 689 mmHg 52%
    21:00 +18°C° 0 mm 4 mps 689 mmHg 58%
    22:00 +18°C° 0 mm 3 mps 689 mmHg 63%
    23:00 +17°C° 0 mm 3 mps 689 mmHg 66%
    Show more